Tracking 31027 objects as of 19-Jul-2025
HD Live streaming from Space Station
objects crossing your sky now

TITAN 3C TRANSTAGE R/B

Track TITAN 3C TRANSTAGE R/B now!


NORAD ID: 12371
Int'l Code: 1981-025C
Perigee: 35,263.9 km
Apogee: 35,734.1 km
Inclination: 7.4 °
Period: 1,421.1 minutes
Semi major axis: 41869 km
RCS: Unknown
Launch date: March 16, 1981
Source: United States (US)
Launch site: AIR FORCE EASTERN TEST RANGE (AFETR)

Note: This is a ROCKET BODY
Your satellite tracking list
No more satellites can be added for tracking (max 5)
FOX-1B (RADFXSAT AO-91)
FOX-1D (AO-92)
FOX-1A (AO-85)
FUNCUBE 1 (AO-73)
SPACE STATION
Track 5 satellite(s)




NASA's NSSDC Master Catalog

Two Line Element Set (TLE):
1 12371U 81025C   25198.56983360  .00000053  00000-0  00000-0 0  9993
2 12371   7.4053 301.2524 0056156 317.5238  42.1771  1.01332516 23654
Source of the keplerian elements: McCants